Regional Weather Roundup
Issued by NWS

Home | Current Version | Previous Version | Text Only | Print | Product List | Glossary Off
Versions: 1 2 3 4 5 6 7 8 9 10 11 12 13 14 15 16 17 18 19 20 21 22 23 24 25 26 27 28 29 30 31 32 33 34 35 36 37 38 39 40 41 42 43 44 45 46 47 48 49 50

000
ASUS43 KMKX 261000
RWRWI

WISCONSIN REGIONAL WEATHER ROUNDUP
NATIONAL WEATHER SERVICE MILWAUKEE/SULLIVAN WI
500 AM CDT TUE SEP 26 2017

NOTE: "FAIR" INDICATES FEW OR NO CLOUDS BELOW 12,000 FEET WITH NO
SIGNIFICANT WEATHER AND/OR OBSTRUCTIONS TO VISIBILITY.

WIZ001-002-006>008-014>016-023>028-261100-
NORTHWEST WISCONSIN

CITY           SKY/WX    TMP DP  RH WIND       PRES   REMARKS
SUPERIOR ARPT  DRIZZLE   56  56  99 NE14      29.93F
ASHLAND        LGT RAIN  57  55  93 NE10      29.93F
HAYWARD        LGT RAIN  59  57  93 NE3       29.91F
SIREN          LGT RAIN  57  56  97 CALM      29.91F
CUMBERLAND     RAIN      55  55 100 CALM      29.91F
RICE LAKE      DRIZZLE   60  59  98 CALM      29.91F
CHETEK         CLOUDY    60  60 100 CALM      29.90F
LADYSMITH      FOG       62  61  97 CALM      29.93S VSB 1/2
EAU CLAIRE     NOT AVBL
MENOMONIE      FOG       62  62 100 CALM      29.90F VSB 1/2
NEW RICHMOND   LGT RAIN  58  57  99 CALM      29.91F
OSCEOLA        RAIN      57  57 100 CALM      29.93F
$$

WIZ003>005-009-010-017-018-261100-
NORTH CENTRAL WISCONSIN

CITY           SKY/WX    TMP DP  RH WIND       PRES   REMARKS
MANITOWISH WTR NOT AVBL
ARBOR VITAE    DRZL/FOG  62  61  96 CALM      29.92S VSB 3/4
WOODRUFF       DRZL/FOG  62  61  96 CALM      29.92S VSB 3/4
RHINELANDER    CLOUDY    63  63 100 CALM      29.93S
EAGLE RIVER    FOG       63  63 100 CALM      29.92F VSB 3/4
LAND O LAKES   FOG       61  61 100 N3        29.94F VSB 1/4
PHILLIPS       FOG       60  60 100 CALM      29.91F VSB 1/2
TOMAHAWK       CLOUDY    62  61  97 CALM      29.92S FOG
MEDFORD        PTCLDY    62  61  99 SE3       29.91F FOG
MERRILL        LGT RAIN  64  64 100 CALM      29.92F
$$

WIZ029-030-035-036-043>047-261100-
CENTRAL WISCONSIN

CITY           SKY/WX    TMP DP  RH WIND       PRES   REMARKS
WAUSAU         CLOUDY    65  64  97 SE3       29.90F
MOSINEE        CLOUDY    63  63 100 E3        29.92F
MARSHFIELD     MOCLDY    64  62  93 CALM      29.91S FOG
STEVENS POINT  MOCLDY    64  64 100 CALM      29.91F
WAUPACA        LGT RAIN  66  65  96 CALM      29.92F
WAUTOMA        LGT RAIN  65  64  97 CALM      29.92
WISC RAPIDS    MOCLDY    66  65  96 SW5       29.92S
CAMP DOUGLAS   CLOUDY    66  66 100 S3        29.92R
$$

WIZ011>013-019>022-031-037>040-048>050-261100-
NORTHEAST WISCONSIN

CITY           SKY/WX    TMP DP  RH WIND       PRES   REMARKS
ANTIGO         CLOUDY    63  63 100 S6        29.94S
SHAWANO        CLOUDY    66  64  92 CALM      29.92S
OCONTO         CLOUDY    59  58  98 CALM      29.92S
STURGEON BAY   CLEAR     62  61  96 CALM      29.93S
GREEN BAY      CLOUDY    62  62 100 CALM      29.92S
MANITOWOC      CLEAR     61  59  93 CALM      29.93S
APPLETON       CLEAR     64  59  82 CALM      29.92S
CLINTONVILLE   CLOUDY    64  63  94 CALM      29.92S
OSHKOSH        CLEAR     63  61  93 CALM      29.92S
$$

WIZ032>034-041-042-053>061-261100-
SOUTHWEST WISCONSIN

CITY           SKY/WX    TMP DP  RH WIND       PRES   REMARKS
LA CROSSE      CLOUDY    68  67  96 SE3       29.90R
SPARTA         LGT RAIN  59  59 100 CALM      29.91F
VIROQUA        CLOUDY    64  64 100 CALM      29.92F
BOSCOBEL       CLOUDY    66  65  96 CALM      29.92S FOG
PRAIRIE DU CHI CLOUDY    66  64  94 CALM      29.91S
PLATTEVILLE    MOCLDY    65  65 100 E3        29.93S
$$

WIZ056-057-062-063-064-067-068-261100-
SOUTH CENTRAL WISCONSIN

CITY           SKY/WX    TMP DP  RH WIND       PRES   REMARKS
REEDSBURG      MOCLDY    65  65 100 NW3       29.93R FOG
BARABOO/DELLS  PTCLDY    65  63  92 CALM      29.92F
LONE ROCK      NOT AVBL
MINERAL POINT  CLOUDY    66  66 100 CALM      29.93S
MADISON        LGT RAIN  65  64  97 E6        29.92F
MIDDLETON      MOCLDY    68  65  93 E8        29.92F
WATERTOWN      PTCLDY    62  62 100 CALM      29.93S
MONROE         CLOUDY    66  63  88 NE8       29.94F
JANESVILLE     MOCLDY    66  64  94 NW5       29.94R
$$

WIZ051-052-058>065-066-070>072-261100-
SOUTHEAST WISCONSIN

CITY           SKY/WX    TMP DP  RH WIND       PRES   REMARKS
MILWAUKEE      PTCLDY    68  60  75 CALM      29.92S
WAUKESHA       CLEAR     61  55  82 CALM      29.95S
MILWAUKEE/TIMM PTCLDY    63  55  77 CALM      29.95R
RACINE         CLEAR     67  60  78 CALM      29.94F
BURLINGTON     CLEAR     58  58 100 CALM      29.94S
KENOSHA        CLEAR     65  58  78 CALM      29.94R
FOND DU LAC    CLEAR     62  58  86 W5        29.93S
SHEBOYGAN      CLEAR     60  60 100 CALM      29.93S
WEST BEND        N/A     61  59  94 CALM      29.94S
JUNEAU         CLEAR     63  61  93 CALM      29.95S
$$

LSZ147-162-261100-
LAKE SUPERIOR

STATION/POSITION TIME  TEMP    WIND        PRES    WAVE
                       AIR SEA DIR/SP/G            HT/PER
                 (UTC) (F)     (DEG/KT/KT) (MB)    (FT/S)
W MID LAKE BUOY  0850   55 55   30/ 17/ 21 1014.1F   4/ 6
DEVILS ISLAND    0900   56      60/ 23/ 26 1014.4F
PORT WING        0820   57      50/ 13/ 16 1014.2
SAXON HARBOR     0940   60      70/  6/  9 1012.9F
$$

LMZ867-665-643>646-261100-
LAKE MICHIGAN

STATION/POSITION TIME  TEMP    WIND        PRES    WAVE
                       AIR SEA DIR/SP/G            HT/PER
                 (UTC) (F)     (DEG/KT/KT) (MB)    (FT/S)
S GREEN BAY BUOY 0930   69 70  330/  6/  6 1013.1F
N MID LAKE BUOY  0850   68 67  150/  6/  8 1013.5F   1
NORTHPORT PIER   0940   65     220/  1/  3 1012.9S
KEWAUNEE LAKESHO 0930   64     310/  1/  1 1012.5S
SHEBOYGAN LAKESH 0900   67     250/  2/  2 1013.0F
PORT WASHINGTON  0940   65     250/  4/  4 1014.2S
ATWATER BUOY     0809   69 63   50/  2/  2 1013.6R
MILWAUKEE LAKESH 0930   68      60/  1/  1   N/A
S MID LAKE BUOY  0850   73 71  160/  8/ 10 1013.4F   0
KENOSHA   LAKESH 0900   72     180/  5/  6 1013.2
$$

TC  - TEMPERATURE IN CELSIUS
VSB - VISIBILITY IN STATUTE MILES
WCI - WIND CHILL INDEX
HX  - HEAT INDEX





USA.gov is the U.S. government's official web portal to all federal, state and local government web resources and services.